Location: Unspecified
(40.5158°N, 0.0000°E)
Time: 16:06:44
(UTC+00:00)

Tiangong 2 - Visible Passes

Search period start: 21 May 2019 00:00
Search period end: 31 May 2019 00:00
Orbit: 379 x 387 km, 42.8° (Epoch: 21 May)

Date Brightness Start Highest point End Pass type
(mag) Time Alt. Az. Time Alt. Az. Time Alt. Az.
21 May 1.3 19:56:32 10° SW 19:59:33 47° SSE 20:02:35 10° E visible
21 May 1.6 21:33:09 10° W 21:36:04 57° NNW 21:36:04 57° NNW visible
22 May 1.2 20:33:03 10° W 20:36:11 75° NNW 20:39:09 11° ENE visible
22 May 3.3 22:09:58 10° WNW 22:11:20 23° WNW 22:11:20 23° WNW visible
23 May 1.7 21:09:53 10° W 21:12:58 53° N 21:14:11 30° ENE visible
24 May 1.6 20:09:45 10° W 20:12:51 59° N 20:15:57 10° ENE visible
24 May 2.0 21:46:38 10° WNW 21:49:05 47° NW 21:49:05 47° NW visible
25 May 1.6 20:46:35 10° WNW 20:49:39 54° N 20:51:42 19° ENE visible
25 May 3.9 22:23:19 10° WNW 22:23:52 14° W 22:23:52 14° W visible
26 May 0.9 21:23:16 10° WNW 21:26:24 85° NNE 21:26:26 85° NE visible
27 May 1.4 20:23:12 10° WNW 20:26:19 64° N 20:28:58 13° E visible
27 May 3.3 22:00:01 10° W 22:01:08 19° W 22:01:08 19° W visible
28 May 1.0 20:59:51 10° WNW 21:02:58 65° SSW 21:03:40 46° SE visible
29 May 1.1 19:59:46 10° WNW 20:02:55 84° NNE 20:06:02 10° ESE visible
29 May 3.1 21:36:50 10° W 21:38:22 19° WSW 21:38:22 19° WSW visible
30 May 1.8 20:36:29 10° W 20:39:27 39° SSW 20:40:54 23° SSE visible
